COSMOS 1275 DEB, 13476

Orbit data source: Space-Track

COSMOS 1275 DEB, 13476 is space debris in LEO originally from a launch on Thu, 04 Jun 1981 UTC launched from the Plesetsk Missile And Space Complex (PKMTR). Debris objects in space refer to the collection of defunct objects orbiting the Earth. Examples of debris include non-operational satellites, rocket bodies, and fragments generated from explosions, collisions, or faulty payload assembly.

Loading next visibility...
Identifier
13476, 1981-053FW
Orbit
LEO
Country
Flag of CISCIS
Related business
Manufacturer
Unknown
Mission
Spacecraft
Bus & Motor
Unknown
Mass
Unknown
Launch date (UTC)
1981-06-04 (45 years ago)
Launch vehicle
Unknown
Launch site
Plesetsk Missile And Space Complex (PKMTR)
Object type
Payload
Rocket body
Debris
Shape & HBR
Unknown shape, 0.1 m
Radar Cross Section
Small (<0.1 m²)

Expand to show TLE details & history
Last TLE update: 18 hours ago

TLE from 18 hours ago
0 COSMOS 1275 DEB
1 13476U 81053FW  25352.81623399  .00001771  00000-0  11180-2 0  9995
2 13476  82.8012 299.6665 0052459  36.1830 352.2003 14.02962296204106
Epoch: 2025-12-18T19:35Z
TLE epoch observation values (Epoch: 2025-12-18T19:35:22.616Z)
Latitude
28.10123°
Longitude
-77.99723°
Altitude
849.288 km
Speed
7.45 km/s
True Right ascension
20h 14m 03s
True Declination
27° 57' 37"
Sunlit
Object was in daylight at epoch
Visualization orbit readout
Latitude
Unknown
Longitude
Unknown
Altitude
Unknown
Speed
Unknown
Apparent Right ascension
Unknown
Apparent Declination
Unknown
Sunlit
N/A
Visualization observer readout
Local Sidereal Time
12:35:21
Azimuth
Unknown
Elevation
Unknown
Doppler factor
Unknown
Orbital elements
Apogee altitude
918.75 km
Perigee altitude
842.592 km
Semi-major axis
7,258.808 km
Eccentricity
0.00525
Inclination
82.8012°
RAAN
299.6665°
Arg. of periapsis
36.183°
True anomaly
352.11819°
Mean anomaly
352.2003°
Eccentric anomaly
352.1593°
Mean motion
3.5095 °/min
Orbital period
102.58 mins
BSTAR
0.001118
Loading maneuver chart data...
Computing Atmospheric mass density...
Loading historical data...
Loading historical data...
Loading historical data...
Loading historical data...
Loading historical data...
Loading historical data...
Loading historical data...

Documentation

Showing up to 5 results
|